Погода Торгай

Погода Торгай : погода сейчас, прогноз погоды и архив. Всё, что Вы хотите узнать о погоде Торгай!

Хотите узнать прогноз погоды Торгай? Тогда Вам сюда: Погода Торгай

Поиск расширенной информации на нашем сайте:

Другие новости

Новости СМИ2

Главная страница сайта

Новости сайта

03.07.2017

Напоминаем, что на нашем специализированном сайте Метеоцентр.Азия вы можете получить высокодетализированные автоматические прогнозы погоды по пунктам России, СНГ и мира в авиационном формате (включающие направление и скорость ветра, видимость, явления погоды, количество и форму облачности, нижнюю и верхнюю границу облачности).

Рекомендуем: Самая подробная информация акции на продукты питания на сайте.

Погода Торгай - сегодня

Время (UTC), дата Ветер
(°,м/с) 
Видим.   Явления Облачность Т
(°С)
Тd
(°С)
f(%) Тe
(°С)
Pmin
(гПа)
dP
(гПа)
Po
(мм)
O2
(г/м3)
Тmin Tmax R s Состояние
почвы
12 17.02.18 270 (З) 10 км    ясно 
-17.6 -21.7 70 -18  1042.2  768  332           
15 17.02.18 290 (З) н/о    ясно 
-19.5 -22.1 80 -20  1042.7  0.3  768  335    -14.4       
18 17.02.18 290 (З) н/о    ясно 
-22 -25.2 75 -22  1042.8  768  338    -14.4       
21 17.02.18 290 (З) н/о    ясно 
-22.5 -25.7 75 -23  1042.9  0.1  768  339           
00 18.02.18 290 (З) н/о    ясно 
-24.6 -28.5 70 -25  1043.4  0.1  768  342           
03 18.02.18 320 (СЗ) 10 км    4/0 средняя 
[Ac lent]
-24.8 -28.7 70 -25  1043.9  0.5  768  342  -24.8      23  равномерный
сухой снег
100% 
06 18.02.18 020 (С) 10 км    ясно 
-23.3 -27.2 70 -24  1043.9  0.2  769  340  -24.8         
09 18.02.18 020 (С) 10 км    ясно 
-19.3 -22.6 75 -22  1043.8  0.2  769  335           
12 18.02.18 020 (С) 10 км    ясно 
-18.6 -21.9 75 -21  1042.7  -1.1  768  334           
15 18.02.18 340 (С) н/о    ясно 
-22.4 -25.6 75 -23  1042.8  -0.2  768  339    -18.4       
18 18.02.18 340 (С) н/о    ясно 
-23.3 -26.5 75 -24  1042.3  -0.5  767  340    -18.4       
21 18.02.18 340 (С) н/о    ясно 
-24 -27.2 75 -24  1041.8  -0.5  767  341           
00 19.02.18 340 (С) н/о    ясно 
-24.6 -28.5 70 -25  1040.6  -1.3  766  341           
03 19.02.18 020 (С) 10 км    3/0 средняя 
[Ac lent]
-25.4 -29.2 70 -26  1040.8  0.2  766  342  -25.4      23  равномерный
сухой снег
100% 
06 19.02.18 020 (С) 10 км    3/0 средняя 
[Ac lent]
-22.2 -26.1 71 -23  1039.6  -1  765  338  -25.4         
09 19.02.18 020 (С) 10 км    4/0 средняя 
[Ac trans]
-16.6 -20 75 -17  1037.6  -1.6  764  329           
12 19.02.18 020 (С) 10 км    ясно 
-15.4 -18.8 75 -15  1036  -1.4  763  327           
15 19.02.18 020 (С) н/о    ясно 
-17.8 -29.4 36 -18  1035.4  -0.7  763  331    -15.2       
18 19.02.18 020 (С) н/о    ясно 
-18.6 -21.2 80 -21  1034  -1.5  762  331    -15.2       
21 19.02.18 020 (С) н/о    ясно 
-20.4 -22.9 80 -23  1033.5  -0.7  761  333           
00 20.02.18 020 (С) н/о    6/0 средняя 
[Ac lent]
-19.4 -22.7 75 -20  1031.4  -1.9  760  331           
03 20.02.18 340 (С) н/о    9/0 средняя 
[Ac trans]
-18.4 -21.7 75 -21  1029.4  1.5  758  329  -18.4      16  равномерный
мокрый или
старый снег
100% 
06 20.02.18 020 (С) 10 км    6/0 средняя 
[Ac trans]
-11.6 -15.1 75 -14  1022.4  753  318  -17.3         
09 20.02.18 020 (С) 10 км    10/0 средняя 
[As op]
-7.9 -11 78 -8  1023.1  -2.2  754  314           
12 20.02.18 070 (В) 10 км    9/0 средняя 
[Ac lent]
-7 -10.3 77 -8  1019.9  -3.1  752  312           
Время (UTC), дата Ветер
(°,м/с) 
Видим.   Явления Облачность Т
(°С)
Тd
(°С)
f(%) Тe
(°С)
Pmin
(гПа)
dP
(гПа)
Po
(мм)
O2
(г/м3)
Тmin Tmax R s Состояние
почвы

Для получения пояснительной информации подведите курсор к названию столбца.

ПОГОДА Торгай - архив

Всё, что Вы хотите узнать о погоде Торгай - удобно и подробно!

Выберите нужную дату (начиная с 1 января 2015* года) и нажмите кнопку "Найти".
Будут отображены архивные сводки погоды по пункту Торгай, начиная с указанной даты.


Отображать данные в формате CSV (для использования в таблицах Excel)


Внимание! Наш архив погоды предназначен исключительно для личного некоммерческого использования в познавательных целях. Если Вам необходимы официальные справки о состоянии погоды (для производственных, юридических, коммерческих и т.п. целей), обращайтесь в органы Росгидромета.

*Примечание: данная дата относится к архиву по метеостанциям СССР (Россия, СНГ, Балтия).
Архив по метеостанциям Зарубежной Европы и Азии (кроме Китая) хранится 10 дней, по другим регионам земного шара (Китай, Африка, Америка, Австралия, Океания) - 1 день.

Торгай - район местоположения метеостанции


Название, широта, долгота, высота метеостанции:
Торгай 49.7°ш. 63.5°д. 123 м над ур. моря [Казахстан]

Дополнительная информация

В oтличие oт бoльшинства пoгoдных сайтoв мы публикуем пoдрoбную метеoинфoрмацию в детальнoм прoфессиoнальнoм фoрмате.

Характеристики температуры и влажнoсти вoздуха измеряются на высoте 2 м в тени вдали oт зданий и деревьев.
Скoрoсть ветра измеряется на высoте 10 м (на урoвне рoста челoвека скoрoсть ветра ниже в 1.5-2 раза). Если метеoстанция нахoдится в гoрoде или в лесу, тo скoрoсть ветра занижена на 2-4 м/с пo сравнению с oткрытым местoм. Скoрoсть ветра над акватoриями крупных рек и oзёр, а также на вершинах хoлмoв на 2-5 м/с выше, чем в oбычных услoвиях.
Атмoсфернoе давление в разных тoчках местнoсти мoжет значительнo oтличаться oт давления на метеoстанции, в зависимoсти oт услoвий рельефа (при пoдъёме на 10 м давление пoнижается примернo на 1 мм рт.ст.).